Location: Wellington
(41.3000°S, 174.7830°E)
Time: 02:54:18
(UTC+13:00)

Cosmos 2360 Rocket - Pass Details

Date: 24 January 2019
Orbit: 834 x 845 km, 71.0° (Epoch: 17 February)

Event Time Altitude Azimuth Distance (km) Brightness Sun altitude
Exits shadow 22:43:38 - 341° (NNW) 3,014 4.8 -17.9°
Reaches altitude 10° 22:45:04 10° 341° (NNW) 2,470 4.3 -18.1°
Maximum altitude 22:50:45 84° 68° (ENE) 864 2.1 -18.8°
Drops below altitude 10° 22:56:30 10° 155° (SSE) 2,497 5.0 -19.5°
Sets 22:58:58 0° 155° (SSE) 3,437 5.7 -19.8°
